H1 CPF 2 NER 2024 7 2 9 184 01 glonass135 H2 1600801 9135 41330 2024 7 2 0 0 0 2024 7 5 23 45 0 900 1 1 0 0 0 1 H9 10 0 60493 0.00000 0 6041864.682 -9813254.337 -22748395.019 10 0 60493 900.00000 0 7649361.544 -7476959.481 -23152642.110 10 0 60493 1800.00000 0 9440827.809 -5250768.590 -23107072.369 10 0 60493 2700.00000 0 11371106.551 -3189666.965 -22612749.308 10 0 60493 3600.00000 0 13386331.351 -1339597.765 -21679442.074 10 0 60493 4500.00000 0 15426041.316 264233.925 -20325423.341 10 0 60493 5400.00000 0 17425585.948 1598595.704 -18577104.252 10 0 60493 6300.00000 0 19318719.835 2652951.891 -16468514.066 10 0 60493 7200.00000 0 21040279.317 3429649.092 -14040634.983 10 0 60493 8100.00000 0 22528830.135 3943557.758 -11340605.108 10 0 60493 9000.00000 0 23729176.274 4221186.756 -8420804.950 10 0 60493 9900.00000 0 24594626.064 4299309.721 -5337844.866 10 0 60493 10800.00000 0 25088921.658 4223162.156 -2151472.766 10 0 60493 11700.00000 0 25187751.928 4044285.920 1076577.272 10 0 60493 12600.00000 0 24879786.057 3818112.300 4283773.604 10 0 60493 13500.00000 0 24167184.910 3601385.616 7407990.353 10 0 60493 14400.00000 0 23065568.831 3449535.868 10388702.748 10 0 60493 15300.00000 0 21603442.982 3414110.978 13168151.861 10 0 60493 16200.00000 0 19821103.687 3540376.708 15692456.773 10 0 60493 17100.00000 0 17769070.670 3865185.363 17912653.240 10 0 60493 18000.00000 0 15506109.592 4415203.274 19785639.268 10 0 60493 18900.00000 0 13096926.190 5205572.251 21275009.740 10 0 60493 19800.00000 0 10609626.811 6239062.280 22351764.301 10 0 60493 20700.00000 0 8113049.900 7505752.479 22994874.878 10 0 60493 21600.00000 0 5674078.323 8983255.465 23191701.755 10 0 60493 22500.00000 0 3355043.393 10637477.801 22938249.750 10 0 60493 23400.00000 0 1211327.916 12423886.833 22239258.830 10 0 60493 24300.00000 0 -710732.443 14289233.013 21108126.465 10 0 60493 25200.00000 0 -2375562.284 16173657.549 19566662.060 10 0 60493 26100.00000 0 -3759602.621 18013098.648 17644676.962 10 0 60493 27000.00000 0 -4852057.472 19741896.631 15379416.741 10 0 60493 27900.00000 0 -5655099.563 21295489.189 12814845.621 10 0 60493 28800.00000 0 -6183526.432 22613083.560 10000796.130 10 0 60493 29700.00000 0 -6463881.593 23640192.778 6992000.023 10 0 60493 30600.00000 0 -6533078.216 24330928.310 3847019.243 10 0 60493 31500.00000 0 -6436584.152 24649951.282 627098.205 10 0 60493 32400.00000 0 -6226246.168 24573998.751 -2605039.427 10 0 60493 33300.00000 0 -5957846.867 24092919.462 -5786424.867 10 0 60493 34200.00000 0 -5688499.424 23210174.446 -8855083.730 10 0 60493 35100.00000 0 -5473992.282 21942780.756 -11751255.379 10 0 60493 36000.00000 0 -5366198.033 20320700.552 -14418566.980 10 0 60493 36900.00000 0 -5410657.780 18385701.457 -16805138.255 10 0 60493 37800.00000 0 -5644444.493 16189736.664 -18864594.659 10 0 60493 38700.00000 0 -6094396.597 13792913.518 -20556968.990 10 0 60493 39600.00000 0 -6775796.907 11261136.530 -21849473.927 10 0 60493 40500.00000 0 -7691552.762 8663524.112 -22717131.055 10 0 60493 41400.00000 0 -8831911.735 6069707.317 -23143245.000 10 0 60493 42300.00000 0 -10174724.518 3547123.302 -23119714.558 10 0 60493 43200.00000 0 -11686243.483 1158415.816 -22647175.962 10 0 60493 44100.00000 0 -13322423.019 -1040950.083 -21734976.719 10 0 60493 45000.00000 0 -15030666.837 -3004761.201 -20400981.537 10 0 60493 45900.00000 0 -16751948.952 -4697732.882 -18671215.024 10 0 60493 46800.00000 0 -18423219.698 -6096721.510 -16579348.649 10 0 60493 47700.00000 0 -19979996.393 -7191424.582 -14166042.325 10 0 60493 48600.00000 0 -21359030.783 -7984541.460 -11478153.457 10 0 60493 49500.00000 0 -22500942.308 -8491390.266 -8567828.724 10 0 60493 50400.00000 0 -23352707.674 -8738998.837 -5491495.946 10 0 60493 51300.00000 0 -23869903.228 -8764709.438 -2308775.228 10 0 60493 52200.00000 0 -24018606.875 -8614356.954 918669.997 10 0 60493 53100.00000 0 -23776880.323 -8340097.888 4128320.207 10 0 60493 54000.00000 0 -23135769.873 -7997981.890 7258002.866 10 0 60493 54900.00000 0 -22099783.775 -7645368.119 10247088.584 10 0 60493 55800.00000 0 -20686825.873 -7338295.139 13037657.767 10 0 60493 56700.00000 0 -18927587.651 -7128914.886 15575615.744 10 0 60493 57600.00000 0 -16864423.148 -7063098.586 17811735.425 10 0 60493 58500.00000 0 -14549752.502 -7178315.375 19702607.781 10 0 60493 59400.00000 0 -12044059.331 -7501873.102 21211482.270 10 0 60493 60300.00000 0 -9413563.843 -8049595.850 22308981.277 10 0 60493 61200.00000 0 -6727667.063 -8824994.725 22973674.838 10 0 60493 62100.00000 0 -4056271.053 -9818968.034 23192504.449 10 0 60493 63000.00000 0 -1467085.262 -11010045.159 22961047.339 10 0 60493 63900.00000 0 976969.958 -12365165.747 22283615.406 10 0 60493 64800.00000 0 3220155.408 -13840963.543 21173185.949 10 0 60493 65700.00000 0 5216001.560 -15385502.890 19651164.360 10 0 60493 66600.00000 0 6929006.617 -16940396.700 17746982.109 10 0 60493 67500.00000 0 8335873.257 -18443218.192 15497536.565 10 0 60493 68400.00000 0 9426232.214 -19830105.840 12946482.361 10 0 60493 69300.00000 0 10202822.287 -21038452.109 10143387.245 10 0 60493 70200.00000 0 10681119.252 -22009562.464 7142768.319 10 0 60493 71100.00000 0 10888429.596 -22691171.716 4003027.343 10 0 60493 72000.00000 0 10862487.854 -23039710.392 785306.257 10 0 60493 72900.00000 0 10649617.729 -23022224.060 -2447713.976 10 0 60493 73800.00000 0 10302536.019 -22617863.188 -5633046.634 10 0 60493 74700.00000 0 9877893.835 -21818879.338 -8708639.165 10 0 60493 75600.00000 0 9433660.917 -20631084.689 -11614594.172 10 0 60493 76500.00000 0 9026465.551 -19073754.892 -14294346.293 10 0 60493 77400.00000 0 8709004.289 -17178979.137 -16695770.899 10 0 60493 78300.00000 0 8527632.438 -14990484.942 -18772202.252 10 0 60493 79200.00000 0 8520238.139 -12561987.428 -20483340.980 10 0 60493 80100.00000 0 8714490.380 -9955132.862 -21796033.260 10 0 60493 81000.00000 0 9126534.971 -7237123.100 -22684907.130 10 0 60493 81900.00000 0 9760193.176 -4478120.509 -23132854.371 10 0 60493 82800.00000 0 10606696.200 -1748541.746 -23131349.710 10 0 60493 83700.00000 0 11644965.991 883647.220 -22680602.327 10 0 60493 84600.00000 0 12842429.837 3355523.037 -21789537.916 10 0 60493 85500.00000 0 14156333.922 5611577.230 -20475612.695 10 0 60494 0.00000 0 15535500.137 7605771.617 -18764464.039 10 0 60494 900.00000 0 16922452.998 9303194.348 -16689404.122 10 0 60494 1800.00000 0 18255825.646 10681247.148 -14290769.167 10 0 60494 2700.00000 0 19472946.765 11730320.117 -11615133.996 10 0 60494 3600.00000 0 20512498.590 12453925.408 -8714409.243 10 0 60494 4500.00000 0 21317135.788 12868287.287 -5644837.646 10 0 60494 5400.00000 0 21835955.912 13001407.357 -2465908.687 10 0 60494 6300.00000 0 22026718.339 12891645.450 760787.872 10 0 60494 7200.00000 0 21857719.069 12585876.790 3972747.786 10 0 60494 8100.00000 0 21309242.973 12137303.401 7107755.029 10 0 60494 9000.00000 0 20374532.580 11603012.059 10105078.706 10 0 60494 9900.00000 0 19060232.430 11041381.443 12906641.529 10 0 60494 10800.00000 0 17386289.707 10509447.371 15458137.856 10 0 60494 11700.00000 0 15385314.233 10060336.646 17710080.273 10 0 60494 12600.00000 0 13101423.261 9740877.238 19618754.967 10 0 60494 13500.00000 0 10588617.672 9589485.157 21147067.903 10 0 60494 14400.00000 0 7908755.508 9634417.023 22265265.774 10 0 60494 15300.00000 0 5129205.459 9892462.231 22951517.901 10 0 60494 16200.00000 0 2320276.185 10368130.494 23192347.702 10 0 60494 17100.00000 0 -447473.239 11053370.073 22982905.037 10 0 60494 18000.00000 0 -3105931.230 11927829.987 22327073.413 10 0 60494 18900.00000 0 -5592028.788 12959656.899 21237409.081 10 0 60494 19800.00000 0 -7850124.495 14106794.859 19734911.996 10 0 60494 20700.00000 0 -9834080.378 15318734.890 17848631.835 10 0 60494 21600.00000 0 -11508942.138 16538642.141 15615115.420 10 0 60494 22500.00000 0 -12852153.438 17705771.961 13077705.132 10 0 60494 23400.00000 0 -13854253.196 18758073.474 10285701.056 10 0 60494 24300.00000 0 -14519026.545 19634870.720 7293402.649 10 0 60494 25200.00000 0 -14863103.173 20279507.498 4159048.453 10 0 60494 26100.00000 0 -14915020.308 20641843.091 943674.921 10 0 60494 27000.00000 0 -14713790.564 20680491.972 -2290082.622 10 0 60494 27900.00000 0 -14307036.233 20364711.321 -5479222.358 10 0 60494 28800.00000 0 -13748770.241 19675855.017 -8561616.277 10 0 60494 29700.00000 0 -13096919.295 18608331.452 -11477232.739 10 0 60494 30600.00000 0 -12410695.674 17170023.716 -14169316.140 10 0 60494 31500.00000 0 -11747930.512 15382153.849 -16585499.511 10 0 60494 32400.00000 0 -11162482.734 13278596.660 -18678827.618 10 0 60494 33300.00000 0 -10701834.181 10904672.011 -20408670.278 10 0 60494 34200.00000 0 -10404973.068 8315466.563 -21741508.203 10 0 60494 35100.00000 0 -10300655.203 5573755.615 -22651576.566 10 0 60494 36000.00000 0 -10406115.883 2747612.202 -23121354.655 10 0 60494 36900.00000 0 -10726286.038 -92196.658 -23141893.139 10 0 60494 37800.00000 0 -11253544.652 -2874918.277 -22712973.798 10 0 60494 38700.00000 0 -11968016.781 -5532515.053 -21843099.815 10 0 60494 39600.00000 0 -12838403.654 -8002246.302 -20549317.856 10 0 60494 40500.00000 0 -13823309.075 -10229025.191 -18856876.323 10 0 60494 41400.00000 0 -14873005.785 -12167454.523 -16798727.007 10 0 60494 42300.00000 0 -15931567.236 -13783458.575 -14414880.227 10 0 60494 43200.00000 0 -16939275.167 -15055445.170 -11751626.100 10 0 60494 44100.00000 0 -17835202.042 -15974951.647 -8860636.971 10 0 60494 45000.00000 0 -18559860.211 -16546749.751 -5797968.196 10 0 60494 45900.00000 0 -19057806.987 -16788406.871 -2622976.295 10 0 60494 46800.00000 0 -19280096.660 -16729323.494 602824.999 10 0 60494 47700.00000 0 -19186476.860 -16409288.341 3816949.099 10 0 60494 48600.00000 0 -18747237.252 -15876612.573 6957138.915 10 0 60494 49500.00000 0 -17944632.937 -15185921.792 9962564.492 10 0 60494 50400.00000 0 -16773822.527 -14395698.647 12774993.292 10 0 60494 51300.00000 0 -15243280.909 -13565679.132 15339911.095 10 0 60494 52200.00000 0 -13374668.329 -12754211.591 17607572.436 10 0 60494 53100.00000 0 -11202159.931 -12015689.015 19533960.781 10 0 60494 54000.00000 0 -8771262.026 -11398162.121 21081640.382 10 0 60494 54900.00000 0 -6137162.565 -10941233.259 22220483.680 10 0 60494 55800.00000 0 -3362682.530 -10674319.615 22928260.311 10 0 60494 56700.00000 0 -515911.494 -10615359.005 23191076.257 10 0 60494 57600.00000 0 2332376.191 -10770013.261 23003654.220 10 0 60494 58500.00000 0 5111418.770 -11131403.675 22369449.160 10 0 60494 59400.00000 0 7753167.170 -11680390.849 21300595.760 10 0 60494 60300.00000 0 10194876.394 -12386388.571 19817687.703 10 0 60494 61200.00000 0 12381480.818 -13208678.857 17949391.728 10 0 60494 62100.00000 0 14267654.529 -14098174.014 15731902.674 10 0 60494 63000.00000 0 15819470.560 -14999552.379 13208248.937 10 0 60494 63900.00000 0 17015589.315 -15853678.139 10427460.908 10 0 60494 64800.00000 0 17847926.065 -16600203.022 7443618.071 10 0 60494 65700.00000 0 18321769.344 -17180239.408 4314793.162 10 0 60494 66600.00000 0 18455345.274 -17538990.807 1101914.351 10 0 60494 67500.00000 0 18278846.623 -17628227.040 -2132431.605 10 0 60494 68400.00000 0 17832968.319 -17408497.819 -5325230.773 10 0 60494 69300.00000 0 17167012.416 -16850989.425 -8414282.616 10 0 60494 70200.00000 0 16336644.024 -15938944.445 -11339424.071 10 0 60494 71100.00000 0 15401394.668 -14668583.300 -14043711.953 10 0 60494 72000.00000 0 14422020.183 -13049487.723 -16474539.408 10 0 60494 72900.00000 0 13457826.253 -11104429.463 -18584663.902 10 0 60494 73800.00000 0 12564075.628 -8868651.159 -20333126.378 10 0 60494 74700.00000 0 11789587.123 -6388629.642 -21686043.672 10 0 60494 75600.00000 0 11174627.830 -3720373.659 -22617259.334 10 0 60494 76500.00000 0 10749186.952 -927327.434 -23108841.003 10 0 60494 77400.00000 0 10531703.192 1922032.291 -23151415.725 10 0 60494 78300.00000 0 10528298.057 4756805.655 -22744337.911 10 0 60494 79200.00000 0 10732545.942 7506377.326 -21895687.872 10 0 60494 80100.00000 0 11125789.302 10103110.484 -20622102.004 10 0 60494 81000.00000 0 11677984.265 12484916.235 -18948438.848 10 0 60494 81900.00000 0 12349040.097 14597593.090 -16907288.122 10 0 60494 82800.00000 0 13090595.324 16396840.863 -14538332.687 10 0 60494 83700.00000 0 13848155.368 17849867.027 -11887575.958 10 0 60494 84600.00000 0 14563501.593 18936520.570 -9006449.705 10 0 60494 85500.00000 0 15177270.503 19649907.899 -5950819.335 10 0 60495 0.00000 0 15631594.826 19996466.824 -2779905.903 10 0 60495 900.00000 0 15872695.958 19995497.177 444856.427 10 0 60495 1800.00000 0 15853318.476 19678168.499 3661001.505 10 0 60495 2700.00000 0 15534905.453 19086047.861 6806234.237 10 0 60495 3600.00000 0 14889422.493 18269209.479 9819628.597 10 0 60495 4500.00000 0 13900753.933 17284005.825 12642799.650 10 0 60495 5400.00000 0 12565611.975 16190593.534 15221027.253 10 0 60495 6300.00000 0 10893919.655 15050317.556 17504310.320 10 0 60495 7200.00000 0 8908650.283 13923062.783 19448331.770 10 0 60495 8100.00000 0 6645128.359 12864683.707 21015316.021 10 0 60495 9000.00000 0 4149819.128 11924619.417 22174762.812 10 0 60495 9900.00000 0 1478655.154 11143793.663 22904043.275 10 0 60495 10800.00000 0 -1305032.655 10552887.962 23188846.687 10 0 60495 11700.00000 0 -4132895.575 10171060.393 23023468.857 10 0 60495 12600.00000 0 -6934162.039 10005164.364 22410935.904 10 0 60495 13500.00000 0 -9638340.691 10049500.918 21362960.094 10 0 60495 14400.00000 0 -12177920.279 10286115.985 19899727.407 10 0 60495 15300.00000 0 -14490954.629 10685631.108 18049519.671 10 0 60495 16200.00000 0 -16523425.271 11208573.705 15848177.303 10 0 60495 17100.00000 0 -18231283.007 11807151.593 13338411.880 10 0 60495 18000.00000 0 -19582082.686 12427397.371 10568981.017 10 0 60495 18900.00000 0 -20556142.235 13011592.126 7593741.005 10 0 60495 19800.00000 0 -21147176.868 13500865.540 4470595.528 10 0 60495 20700.00000 0 -21362381.535 13837861.461 1260361.281 10 0 60495 21600.00000 0 -21221958.178 13969354.781 -1974426.625 10 0 60495 22500.00000 0 -20758108.143 13848707.193 -5170745.070 10 0 60495 23400.00000 0 -20013533.050 13438056.134 -8266323.746 10 0 60495 24300.00000 0 -19039508.617 12710142.574 -11200870.735 10 0 60495 25200.00000 0 -17893614.171 11649698.845 -13917257.587 10 0 60495 26100.00000 0 -16637215.261 10254336.667 -16362639.590 10 0 60495 27000.00000 0 -15332807.069 8534897.064 -18489488.619 10 0 60495 27900.00000 0 -14041331.878 6515246.887 -20256518.042 10 0 60495 28800.00000 0 -12819584.493 4231530.312 -21629481.727 10 0 60495 29700.00000 0 -11717815.155 1730906.716 -22581832.084 10 0 60495 30600.00000 0 -10777630.600 -930172.154 -23095225.161 10 0 60495 31500.00000 0 -10030280.753 -3688073.598 -23159864.034 10 0 60495 32400.00000 0 -9495401.805 -6474395.923 -22774675.020 10 0 60495 33300.00000 0 -9180266.978 -9218580.753 -21947314.456 10 0 60495 34200.00000 0 -9079574.685 -11850617.449 -20694007.037 10 0 60495 35100.00000 0 -9175781.279 -14303728.019 -19039219.715 10 0 60495 36000.00000 0 -9439962.801 -16516922.024 -17015178.178 10 0 60495 36900.00000 0 -9833168.178 -18437316.558 -14661235.690 10 0 60495 37800.00000 0 -10308205.966 -20022126.377 -12023106.729 10 0 60495 38700.00000 0 -10811788.801 -21240242.964 -9151980.220 10 0 60495 39600.00000 0 -11286945.023 -22073338.369 -6103529.374 10 0 60495 40500.00000 0 -11675595.884 -22516449.384 -2936837.011 10 0 60495 41400.00000 0 -11921190.012 -22578019.052 286743.265 10 0 60495 42300.00000 0 -11971284.432 -22279394.929 3504768.398 10 0 60495 43200.00000 0 -11779963.746 -21653805.974 6654907.366 10 0 60495 44100.00000 0 -11309995.773 -20744861.424 9676140.144 10 0 60495 45000.00000 0 -10534632.865 -19604634.721 12509931.474 10 0 60495 45900.00000 0 -9438982.825 -18291412.657 15101357.339 10 0 60495 46800.00000 0 -8020891.017 -16867203.636 17400163.011 10 0 60495 47700.00000 0 -6291295.547 -15395108.869 19361732.705 10 0 60495 48600.00000 0 -4274039.000 -13936665.919 20947952.660 10 0 60495 49500.00000 0 -2005142.674 -12549275.118 22127951.301 10 0 60495 50400.00000 0 468428.612 -11283816.028 22878702.343 10 0 60495 51300.00000 0 3090461.926 -10182553.321 23185479.108 10 0 60495 52200.00000 0 5797583.607 -9277419.547 23042150.901 10 0 60495 53100.00000 0 8521653.809 -8588746.881 22451315.055 10 0 60495 54000.00000 0 11192370.440 -8124501.319 21424261.123 10 0 60495 54900.00000 0 13739975.546 -7880052.078 19980766.770 10 0 60495 55800.00000 0 16097952.314 -7838486.587 18148727.983 10 0 60495 56700.00000 0 18205600.747 -7971458.562 15963629.504 10 0 60495 57600.00000 0 20010384.467 -8240534.067 13467864.537 10 0 60495 58500.00000 0 21469950.114 -8598979.192 10709916.021 10 0 60495 59400.00000 0 22553734.185 -8993913.856 7743414.830 10 0 60495 60300.00000 0 23244089.217 -9368740.285 4626093.055 10 0 60495 61200.00000 0 23536881.365 -9665742.549 1418653.105 10 0 60495 62100.00000 0 23441533.932 -9828745.808 -1816424.557 10 0 60495 63000.00000 0 22980514.983 -9805721.045 -5016110.726 10 0 60495 63900.00000 0 22188291.092 -9551223.176 -8118068.413 10 0 60495 64800.00000 0 21109792.150 -9028557.497 -11061879.815 10 0 60495 65700.00000 0 19798453.177 -8211581.119 -13790233.998 10 0 60495 66600.00000 0 18313917.066 -7086061.782 -16250050.928 10 0 60495 67500.00000 0 16719496.526 -5650535.616 -18393519.131 10 0 60495 68400.00000 0 15079503.355 -3916626.890 -20179026.358 10 0 60495 69300.00000 0 13456558.428 -1908815.922 -21571965.144 10 0 60495 70200.00000 0 11908995.983 336335.271 -22545398.057 10 0 60495 71100.00000 0 10488471.182 2771467.121 -23080570.501 10 0 60495 72000.00000 0 9237870.798 5340162.647 -23167262.153 10 0 60495 72900.00000 0 8189613.485 7979070.863 -22803971.406 10 0 60495 73800.00000 0 7364409.360 10620325.085 -21997930.418 10 0 60495 74700.00000 0 6770529.024 13194155.662 -20764951.573 10 0 60495 75600.00000 0 6403610.662 15631589.009 -19129109.258 10 0 60495 76500.00000 0 6247011.327 17867121.492 -17122263.780 10 0 60495 77400.00000 0 6272685.871 19841257.956 -14783437.113 10 0 60495 78300.00000 0 6442555.056 21502810.529 -12158052.768 10 0 60495 79200.00000 0 6710304.171 22810863.362 -9297054.475 10 0 60495 80100.00000 0 7023535.731 23736322.808 -6255920.620 10 0 60495 81000.00000 0 7326185.169 24262989.810 -3093593.200 10 0 60495 81900.00000 0 7561097.694 24388110.936 128658.360 10 0 60495 82800.00000 0 7672657.825 24122386.116 3348416.957 10 0 60495 83700.00000 0 7609360.996 23489433.545 6503318.793 10 0 60495 84600.00000 0 7326219.081 22524734.620 9532252.926 10 0 60495 85500.00000 0 6786898.595 21274103.240 12376536.711 10 0 60496 0.00000 0 5965501.448 19791743.498 14981044.785 10 0 60496 900.00000 0 4847912.389 18137975.787 17295271.761 10 0 60496 1800.00000 0 3432656.717 16376727.813 19274305.172 10 0 60496 2700.00000 0 1731229.513 14572891.989 20879695.043 10 0 60496 3600.00000 0 -232118.203 12789660.751 22080200.144 10 0 60496 4500.00000 0 -2421129.908 11085949.591 22852398.054 10 0 60496 5400.00000 0 -4788801.558 9514014.928 23181147.004 10 0 60496 6300.00000 0 -7279097.052 8117365.857 23059890.185 10 0 60496 7200.00000 0 -9829051.986 6929056.861 22490795.986 10 0 60496 8100.00000 0 -12371180.113 5970432.903 21484730.523 10 0 60496 9000.00000 0 -14836083.950 5250379.686 20061061.801 10 0 60496 9900.00000 0 -17155161.896 4765110.952 18247298.046 10 0 60496 10800.00000 0 -19263299.577 4498502.190 16078565.865 10 0 60496 11700.00000 0 -21101433.189 4422957.191 13596937.154 10 0 60496 12600.00000 0 -22618877.237 4500771.184 10850616.911 10 0 60496 13500.00000 0 -23775318.529 4685933.039 7893007.105 10 0 60496 14400.00000 0 -24542391.889 4926289.997 4781664.649 10 0 60496 15300.00000 0 -24904770.481 5165982.560 1577174.118 10 0 60496 16200.00000 0 -24860724.167 5348045.245 -1658042.127 10 0 60496 17100.00000 0 -24422121.938 5417061.491 -4860952.078 10 0 60496 18000.00000 0 -23613878.279 5321758.453 -7969155.139 10 0 60496 18900.00000 0 -22472867.218 5017429.920 -10922110.460 10 0 60496 19800.00000 0 -21046350.616 4468082.963 -13662327.189 10 0 60496 20700.00000 0 -19389988.045 3648215.946 -16136492.206 10 0 60496 21600.00000 0 -17565513.322 2544151.485 -18296512.535 10 0 60496 22500.00000 0 -15638176.658 1154867.190 -20100451.702 10 0 60496 23400.00000 0 -13674060.990 -507711.357 -21513341.793 10 0 60496 24300.00000 0 -11737385.795 -2418967.977 -22507855.877 10 0 60496 25200.00000 0 -9887911.611 -4542392.870 -23064828.512 10 0 60496 26100.00000 0 -8178553.632 -6830885.706 -23173615.249 10 0 60496 27000.00000 0 -6653303.330 -9228510.258 -22832285.354 10 0 60496 27900.00000 0 -5345543.594 -11672627.308 -22047645.171 10 0 60496 28800.00000 0 -4276826.050 -14096316.990 -20835092.798 10 0 60496 29700.00000 0 -3456159.587 -16430989.974 -19218307.792 10 0 60496 30600.00000 0 -2879837.669 -18609079.355 -17228782.619 10 0 60496 31500.00000 0 -2531809.511 -20566701.877 -14905205.383 10 0 60496 32400.00000 0 -2384577.607 -22246178.653 -12292706.013 10 0 60496 33300.00000 0 -2400582.296 -23598311.469 -9441980.471 10 0 60496 34200.00000 0 -2534013.923 -24584320.890 -6408309.844 10 0 60496 35100.00000 0 -2732975.509 -25177366.474 -3250492.973 10 0 60496 36000.00000 0 -2941904.419 -25363586.686 -29712.926 10 0 60496 36900.00000 0 -3104150.821 -25142615.951 3191641.174 10 0 60496 37800.00000 0 -3164604.348 -24527557.884 6351174.655 10 0 60496 38700.00000 0 -3072258.408 -23544416.248 9387687.457 10 0 60496 39600.00000 0 -2782604.238 -22231007.489 12242351.264 10 0 60496 40500.00000 0 -2259753.831 -20635400.142 14859841.441 10 0 60496 41400.00000 0 -1478202.150 -18813945.807 17189402.534 10 0 60496 42300.00000 0 -424153.883 -16828983.260 19185827.277 10 0 60496 43200.00000 0 903642.012 -14746310.624 20810330.704 10 0 60496 44100.00000 0 2493586.472 -12632530.114 22031302.924 10 0 60496 45000.00000 0 4321467.871 -10552375.122 22824926.131 10 0 60496 45900.00000 0 6351235.207 -8566130.208 23175643.933 10 0 60496 46800.00000 0 8536276.982 -6727250.830 23076473.589 10 0 60496 47700.00000 0 10821154.777 -5080281.634 22529154.440 10 0 60496 48600.00000 0 13143721.382 -3659159.914 21544128.772 10 0 60496 49500.00000 0 15437537.047 -2485975.087 20140354.290 10 0 60496 50400.00000 0 17634484.430 -1570236.291 18344950.543 10 0 60496 51300.00000 0 19667473.932 -908679.040 16192684.825 10 0 60496 52200.00000 0 21473126.690 -485619.347 13725306.295 10 0 60496 53100.00000 0 22994322.671 -273840.594 10990740.295 10 0 60496 54000.00000 0 24182506.423 -235975.724 8042157.888 10 0 60496 54900.00000 0 24999652.739 -326326.060 4936938.544 10 0 60496 55800.00000 0 25419808.495 -493039.108 1735546.464 10 0 60496 56700.00000 0 25430144.748 -680552.088 -1499656.817 10 0 60496 57600.00000 0 25031473.938 -832196.200 -4705639.336 10 0 60496 58500.00000 0 24238209.914 -892849.577 -7819939.766 10 0 60496 59400.00000 0 23077772.422 -811524.658 -10781897.010 10 0 60496 60300.00000 0 21589461.469 -543778.554 -13533842.929 10 0 60496 61200.00000 0 19822849.765 -53842.730 -16022233.731 10 0 60496 62100.00000 0 17835761.858 683619.462 -18198697.104 10 0 60496 63000.00000 0 15691925.984 1682202.638 -20020974.247 10 0 60496 63900.00000 0 13458398.269 2942952.549 -21453738.438 10 0 60496 64800.00000 0 11202868.009 4454096.851 -22469274.632 10 0 60496 65700.00000 0 8990957.223 6191324.844 -23048007.650 10 0 60496 66600.00000 0 6883627.294 8118604.316 -23178869.731 10 0 60496 67500.00000 0 4934800.379 10189501.095 -22859501.491 10 0 60496 68400.00000 0 3189293.656 12348945.948 -22096283.582 10 0 60496 69300.00000 0 1681150.991 14535374.958 -20904199.528 10 0 60496 70200.00000 0 432439.594 16683154.186 -19306533.372 10 0 60496 71100.00000 0 -547440.337 18725187.801 -17334408.643 10 0 60496 72000.00000 0 -1261906.437 20595601.427 -15026178.083 10 0 60496 72900.00000 0 -1726801.404 22232389.531 -12426676.168 10 0 60496 73800.00000 0 -1969475.080 23579917.276 -9586348.878 10 0 60496 74700.00000 0 -2027381.575 24591173.322 -6560277.479 10 0 60496 75600.00000 0 -1946251.620 25229680.467 -3407114.886 10 0 60496 76500.00000 0 -1777917.897 25470985.174 -187954.850 10 0 60496 77400.00000 0 -1577885.355 25303664.430 3034844.568 10 0 60496 78300.00000 0 -1402749.018 24729808.399 6198860.944 10 0 60496 79200.00000 0 -1307568.040 23764958.948 9242808.197 10 0 60496 80100.00000 0 -1343306.517 22437506.594 12107715.342 10 0 60496 81000.00000 0 -1554448.745 20787570.790 14738061.113 10 0 60496 81900.00000 0 -1976889.355 18865409.687 17082843.141 10 0 60496 82800.00000 0 -2636187.451 16729424.929 19096561.576 10 0 60496 83700.00000 0 -3546258.751 14443843.652 20740098.687 10 0 60496 84600.00000 0 -4708561.795 12076173.134 21981477.863 10 0 60496 85500.00000 0 -6111813.831 9694532.957 22796487.521 99